Weather History for Tekamah, NE

Change the Weather History Date:

Monday, July 2, 2012

  Actual Average Record
Temperature  
Mean Temperature 84 °F -  
Max Temperature 96 °F 86 °F 101 °F (1974)
Min Temperature 72 °F 64 °F 51 °F (1959)
Cooling Degree Days 19    
Growing Degree Days 34 (Base 50)    
Moisture  
Dew Point 69 °F    
Average Humidity 63    
Maximum Humidity 91    
Minimum Humidity 38    
Precipitation  
Precipitation 0.00 in - - ()
Sea Level Pressure  
Sea Level Pressure 29.82 in    
Wind  
Wind Speed 7 mph (South)    
Max Wind Speed 17 mph    
Max Gust Speed 23 mph    
Visibility 9 miles    
Events      
Averages and records for this station are not official NWS values.
T = Trace of Precipitation, MM = Missing Value Source: NWS Daily Summary

Daily Weather History Graph

Daily Weather History Graph

Search for Another Location

Airport:

Trip Planner

Search our weather history database for the weather conditions in past years. The results will help you decide how hot, cold, wet, or windy it might be!

Date:

Astronomy

Jul. 02, 2012 Rise Set
Actual Time 5:54 AM CDT 9:03 PM CDT
Civil Twilight 5:20 AM CDT 9:36 PM CDT
Nautical Twilight 4:36 AM CDT 10:20 PM CDT
Astronomical Twilight 3:44 AM CDT 11:12 PM CDT
Moon 8:06 PM CDT (7/2) 4:43 AM CDT (7/2)
Length of Visible Light 16h 16m
Length of Day
15h 08m
Waxing Gibbous, 98% of the Moon is Illuminated
Jul 2
Waxing Gibbous
Jul 3
Full
Jul 10
Last Quarter
Jul 18
New
Jul 26
First Quarter

Hourly Weather History & Observations

Time (CDT) Temp. Heat Index Dew Point Humidity Pressure Visibility Wind Dir Wind Speed Gust Speed Precip Events Conditions
12:54 AM 75.0 °F - 71.1 °F 87% 29.83 in 5.0 mi South 3.5 mph - N/A   Clear
1:54 AM 73.9 °F - 71.1 °F 91% 29.83 in 5.0 mi Calm Calm - N/A   Clear
2:54 AM 75.0 °F - 70.0 °F 84% 29.82 in 6.0 mi SE 6.9 mph - N/A   Haze
3:54 AM 73.9 °F - 68.0 °F 82% 29.82 in 8.0 mi SE 8.1 mph - N/A   Clear
4:54 AM 73.9 °F - 66.9 °F 79% 29.81 in 9.0 mi SSE 8.1 mph - N/A   Clear
5:54 AM 72.0 °F - 66.9 °F 84% 29.83 in 8.0 mi SSE 4.6 mph - N/A   Clear
6:54 AM 73.9 °F - 66.9 °F 79% 29.83 in 7.0 mi SSE 6.9 mph - N/A   Clear
7:54 AM 79.0 °F - 68.0 °F 69% 29.85 in 10.0 mi South 6.9 mph - N/A   Clear
8:54 AM 82.9 °F 85.8 °F 68.0 °F 60% 29.86 in 10.0 mi South 8.1 mph - N/A   Clear
9:54 AM 87.1 °F 90.6 °F 68.0 °F 53% 29.87 in 10.0 mi South 10.4 mph - N/A   Clear
10:54 AM 90.0 °F 94.5 °F 69.1 °F 50% 29.87 in 10.0 mi South 12.7 mph 18.4 mph N/A   Clear
11:54 AM 91.9 °F 98.4 °F 71.1 °F 50% 29.86 in 10.0 mi SSW 11.5 mph - N/A   Clear
12:54 PM 95.0 °F 101.3 °F 70.0 °F 44% 29.85 in 10.0 mi SSW 12.7 mph 20.7 mph N/A   Clear
1:54 PM 95.0 °F 99.5 °F 68.0 °F 41% 29.84 in 10.0 mi South 17.3 mph - N/A   Clear
2:54 PM 96.1 °F 99.9 °F 66.9 °F 38% 29.83 in 10.0 mi South 16.1 mph - N/A   Clear
3:54 PM 96.1 °F 101.0 °F 68.0 °F 40% 29.83 in 10.0 mi South 17.3 mph 23.0 mph N/A   Clear
4:54 PM 95.0 °F 97.9 °F 66.0 °F 38% 29.82 in 10.0 mi South 13.8 mph 23.0 mph N/A   Clear
5:54 PM 93.9 °F 97.5 °F 66.9 °F 41% 29.80 in 10.0 mi South 11.5 mph - N/A   Clear
6:54 PM 91.9 °F 95.9 °F 68.0 °F 45% 29.78 in 10.0 mi South 11.5 mph - N/A   Clear
7:54 PM 89.1 °F 95.0 °F 71.1 °F 55% 29.78 in 10.0 mi South 6.9 mph - N/A   Clear
8:54 PM 82.9 °F 87.5 °F 71.1 °F 67% 29.77 in 10.0 mi SSE 6.9 mph - N/A   Clear
9:54 PM 78.1 °F - 70.0 °F 76% 29.78 in 10.0 mi SSE 5.8 mph - N/A   Clear
10:54 PM 75.0 °F - 70.0 °F 84% 29.80 in 10.0 mi Calm Calm - N/A   Clear
11:54 PM 73.9 °F - 69.1 °F 85% 29.81 in 9.0 mi Calm Calm - N/A   Clear